Change the Weather History Date:

Thursday, December 13, 2012

  Actual Average Record
Temperature  
Mean Temperature 41 °F 29 °F  
Max Temperature 49 °F 36 °F 67 °F (1975)
Min Temperature 33 °F 23 °F -3 °F (2000)
Degree Days  
Heating Degree Days 24 36  
Month to date heating degree days 283 435  
Since 1 July heating degree days 1403 1570  
Cooling Degree Days 0 0  
Month to date cooling degree days 0 0  
Year to date cooling degree days 1473 1045  
Moisture  
Dew Point 25 °F    
Average Humidity 56    
Maximum Humidity 70    
Minimum Humidity 28    
Precipitation  
Precipitation 0.00 in 0.08 in 1.24 in (1928)
Month to date precipitation 0.34 1.20  
Year to date precipitation 25.12 37.72  
Sea Level Pressure  
Sea Level Pressure 30.23 in    
Wind  
Wind Speed 12 mph (SSW)    
Max Wind Speed 25 mph    
Max Gust Speed 32 mph    
Visibility 10 miles    
Events      
T = Trace of Precipitation, MM = Missing Value Source: NWS Daily Summary

Daily Weather History Graph

Daily Weather History Graph

Search for Another Location

Airport or City:

Trip Planner

Search our weather history database for the weather conditions in past years. The results will help you decide how hot, cold, wet, or windy it might be!

Date:

Astronomy

Dec. 13, 2012 Rise Set
Actual Time 7:10 AM CST 4:20 PM CST
Civil Twilight 6:38 AM CST 4:52 PM CST
Nautical Twilight 6:03 AM CST 5:27 PM CST
Astronomical Twilight 5:29 AM CST 6:01 PM CST
Moon 7:18 AM CST (12/13) 5:03 PM CST (12/13)
Length of Visible Light 10h 13m
Length of Day
9h 10m
New Moon, 0% of the Moon is Illuminated
Dec 13
New Moon
Dec 19
First Quarter
Dec 28
Full
Jan 4
Last Quarter
Jan 11
New

Hourly Weather History & Observations

Time (CST) Temp. Windchill Dew Point Humidity Pressure Visibility Wind Dir Wind Speed Gust Speed Precip Events Conditions
12:51 AM 36.0 °F 28.5 °F 25.0 °F 64% 30.30 in 10.0 mi South 10.4 mph - N/A   Clear
1:51 AM 36.0 °F 27.5 °F 25.0 °F 64% 30.30 in 10.0 mi South 12.7 mph - N/A   Clear
2:51 AM 35.1 °F 27.4 °F 24.1 °F 64% 30.31 in 10.0 mi SSW 10.4 mph - N/A   Clear
3:51 AM 34.0 °F 26.0 °F 24.1 °F 67% 30.30 in 10.0 mi SSW 10.4 mph - N/A   Clear
4:51 AM 34.0 °F 26.6 °F 24.1 °F 67% 30.30 in 10.0 mi South 9.2 mph - N/A   Clear
5:51 AM 33.1 °F 26.1 °F 24.1 °F 70% 30.30 in 10.0 mi South 8.1 mph - N/A   Clear
6:51 AM 33.1 °F 25.5 °F 24.1 °F 70% 30.30 in 10.0 mi South 9.2 mph 17.3 mph N/A   Partly Cloudy
7:51 AM 34.0 °F 27.2 °F 24.1 °F 67% 30.30 in 10.0 mi South 8.1 mph - N/A   Mostly Cloudy
8:51 AM 37.9 °F 29.6 °F 21.9 °F 53% 30.28 in 10.0 mi SSW 13.8 mph 21.9 mph N/A   Mostly Cloudy
9:51 AM 39.9 °F 32.9 °F 23.0 °F 51% 30.28 in 10.0 mi SSW 11.5 mph 23.0 mph N/A   Scattered Clouds
10:51 AM 44.1 °F 36.8 °F 23.0 °F 43% 30.26 in 10.0 mi SSW 16.1 mph 24.2 mph N/A   Partly Cloudy
11:51 AM 46.0 °F 39.0 °F 23.0 °F 40% 30.21 in 10.0 mi South 17.3 mph 29.9 mph N/A   Partly Cloudy
12:51 PM 46.9 °F - 24.1 °F 41% 30.19 in 10.0 mi SSW 18.4 mph 29.9 mph N/A   Scattered Clouds
1:51 PM 48.0 °F - 24.1 °F 39% 30.16 in 10.0 mi SSW 16.1 mph 28.8 mph N/A   Scattered Clouds
2:51 PM 48.0 °F - 25.0 °F 41% 30.14 in 10.0 mi SSW 16.1 mph 24.2 mph N/A   Scattered Clouds
3:51 PM 46.0 °F 39.9 °F 27.0 °F 47% 30.14 in 10.0 mi South 13.8 mph 28.8 mph N/A   Mostly Cloudy
6:51 PM 42.1 °F 34.9 °F 28.9 °F 60% 30.17 in 10.0 mi SSW 13.8 mph - N/A   Mostly Cloudy
7:51 PM 41.0 °F 35.2 °F 30.0 °F 65% 30.19 in 10.0 mi SW 9.2 mph 17.3 mph N/A   Overcast
8:51 PM 39.0 °F 34.0 °F 28.9 °F 67% 30.17 in 10.0 mi SSW 6.9 mph - N/A   Mostly Cloudy
9:51 PM 39.2 °F 33.6 °F 28.4 °F 65% 30.16 in 10.0 mi SSW 8.1 mph - N/A   Overcast
10:51 PM 37.9 °F 32.7 °F 28.0 °F 68% 30.19 in 10.0 mi SSW 6.9 mph - N/A   Overcast
11:51 PM 37.0 °F 32.4 °F 28.0 °F 70% 30.18 in 10.0 mi SSW 5.8 mph - N/A   Mostly Cloudy